Location: Birkach
(50.1812°N, 10.9949°E)
Time: 06:18:16
(UTC+00:00)

Daily predictions for brighter satellites

Satellite Brightness Start Highest point End
(mag) Time Altitude Azimuth Time Altitude Azimuth Time Altitude Azimuth
USA 238 DEB 3.9 19:00:58 10° SSW 19:07:14 47° ESE 19:13:45 10° NE
USA 238 3.9 19:01:05 10° SSW 19:07:20 47° ESE 19:13:51 10° NE
SPOT 3 Rocket 3.7 19:02:50 10° SSE 19:07:57 62° ENE 19:13:05 10° N
IRIDIUM 114 4.4 19:03:08 10° S 19:08:21 86° E 19:13:36 10° N
Cosmos 1867 3.6 19:03:52 10° SSW 19:09:15 67° SE 19:14:41 10° NE
CENTAUR R/B 3.2 19:05:58 10° S 19:11:06 31° ESE 19:16:59 10° NE
Cosmos 1666 Rocket 3.6 19:07:02 10° S 19:11:16 59° E 19:15:34 10° NNE
DMSP B5D2-2 4.1 19:08:30 10° NNE 19:13:44 66° ESE 19:18:58 10° S
Cosmos 1954 Rocket 4.2 19:08:51 10° S 19:14:02 54° ESE 19:19:13 10° NNE
FREGAT/IRIS 3.8 19:15:20 10° S 19:17:48 37° W 19:20:18 10° NNW
Intercosmos 25 3.6 19:14:25 10° NNW 19:18:15 62° W 19:21:23 10° S
Cosmos 1821 Rocket 4.1 19:12:39 10° S 19:18:51 89° W 19:25:11 10° N
Ariane Rocket 3.8 19:13:59 10° S 19:18:55 54° W 19:23:53 10° NNW
Cosmos 405 Rocket 3.9 19:16:14 10° SE 19:19:13 23° E 19:22:15 10° NE
Cosmos 1812 4.1 19:16:02 10° NNW 19:19:41 41° W 19:23:18 10° SSW
Okean 1-7 4.4 19:18:11 10° NNE 19:21:39 23° ENE 19:24:59 10° ESE
Cosmos 1805 Rocket 4.4 19:17:34 10° SSW 19:21:57 57° WNW 19:26:22 10° N
Cosmos 407 Rocket 4.0 19:19:08 10° SSW 19:24:26 69° WNW 19:29:42 10° NNE
SJ-6B 3.9 19:23:01 10° S 19:26:53 46° W 19:30:41 10° NNW
Cosmos 2333 Rocket 4.2 19:23:42 10° N 19:27:36 18° NNE 19:31:29 10° ENE
Cosmos 1763 Rocket 3.9 19:22:56 10° NNW 19:28:10 53° ENE 19:33:12 11° SE
Cosmos 1190 Rocket 4.3 19:23:19 10° SSW 19:28:37 76° WNW 19:33:58 10° NNE
Cosmos 1437 Rocket 3.9 19:25:48 10° N 19:29:05 27° ENE 19:31:55 12° SE
deb Kosmos-1763 4.3 19:26:11 10° SSW 19:29:49 76° WNW 19:33:30 10° NNE
Cosmos 1140 Rocket 3.8 19:25:12 10° SSW 19:30:27 76° WNW 19:35:44 10° NNE
FALCON 9 DEB 3.5 19:27:40 10° W 19:31:09 70° NNW 19:34:39 10° ENE
Resurs 1-3 3.7 19:27:31 10° SSE 19:31:55 81° WSW 19:36:20 10° NNW
H-2A R/B 4.3 19:30:37 10° NE 19:34:16 29° E 19:37:54 10° SSE
OBJECT-B 1.3 19:31:16 10° S 19:34:31 62° W 19:37:48 10° NNW
Cosmos 2084 Rocket 4.1 19:32:11 10° S 19:35:54 31° ESE 19:39:43 10° ENE
Cosmos 1633 Rocket 3.1 19:33:42 10° S 19:38:08 90° WNW 19:42:34 10° N
Cosmos 1184 Rocket 2.7 19:35:40 10° S 19:38:57 77° E 19:42:17 10° NNE
Landsat 7 4.3 19:36:27 12° SE 19:40:38 44° ENE 19:45:09 10° N
Cosmos 921 Rocket 3.0 19:36:26 10° NNW 19:40:39 79° WSW 19:44:49 10° SSE
SPOT 5 4.2 19:38:25 12° ESE 19:41:22 22° ENE 19:44:48 10° N
Cosmos 2123 Rocket 4.1 19:35:26 10° N 19:41:41 82° W 19:47:57 10° S
Cosmos 1535 Rocket 4.4 19:38:30 10° S 19:44:37 84° E 19:50:46 10° N
MetOp-B 4.2 19:40:55 10° SSE 19:46:13 67° ENE 19:51:33 10° N
Meteor 1-19 Rocket 4.3 19:44:51 10° N 19:50:14 58° ENE 19:54:58 14° SSE
Okean 1 3.4 19:48:51 10° N 19:52:54 62° ENE 19:56:08 15° SSE
Cosmos 1605 Rocket 3.9 19:47:00 10° S 19:53:02 68° E 19:59:06 10° NNE
CZ-2C R/B 3.3 19:48:13 10° N 19:53:19 58° WNW 19:58:28 10° SSW
ERBS 4.3 19:50:46 10° NW 19:53:36 25° N 19:56:24 10° ENE
USA 267 3.9 19:51:14 10° ENE 19:56:57 32° SE 20:02:40 10° S
NOSS 3-2 (A) 3.4 19:51:28 10° SW 19:57:14 87° SE 20:03:58 10° NE
Cosmos 2219 Rocket 3.9 19:53:41 10° NNW 19:58:07 22° NE 20:02:31 10° E
Meteor 2-4 Rocket 4.2 19:53:26 10° N 19:58:49 44° ENE 20:02:35 18° SE
Lacrosse 4 Rocket 3.6 20:01:22 10° E 20:01:22 10° E 20:01:26 10° E
Cosmos 540 Rocket 3.8 19:56:02 10° NNW 20:01:06 52° ENE 20:04:39 19° SE
SL-16 R/B 2.2 19:56:19 10° NNW 20:02:02 85° ENE 20:06:27 17° SSE
SL-4 R/B 2.0 19:59:58 10° W 20:03:56 70° N 20:07:24 11° E
BREEZE-M DEB (TANK) 2.5 20:01:56 10° W 20:04:41 82° S 20:12:04 10° E
Cosmos 2242 Rocket 3.5 20:01:05 10° N 20:05:33 84° E 20:09:07 15° SSE
SL-27 R/B 2.7 20:04:28 18° S 20:06:33 40° ESE 20:09:42 10° NE
NOSS 3-2 (C) 3.3 20:02:11 10° SSW 20:07:54 70° SE 20:14:31 10° NE
Cosmos 1470 Rocket 3.7 20:03:33 10° SSW 20:07:58 79° WNW 20:12:21 10° N
BREEZE-M DEB (TANK) 1.4 20:09:40 10° W 20:12:07 65° S 20:12:31 47° SE
Cosmos 2082 Rocket 3.3 20:07:05 10° SW 20:12:35 48° NW 20:18:05 10° NNE
ERS-1 Rocket 3.2 20:16:15 22° SE 20:19:18 55° ENE 20:24:13 10° N
Cosmos 2322 Rocket 2.2 20:13:37 10° NNW 20:19:22 88° WSW 20:23:14 21° SSE
Meteor 1-14 Rocket 4.3 20:13:58 10° S 20:19:48 69° E 20:25:46 10° NNE
Cosmos 967 Rocket 4.5 20:16:37 10° NW 20:23:02 87° NE 20:27:10 23° SE
Cosmos 1850 Rocket 3.9 20:19:34 10° SSW 20:24:52 83° ESE 20:30:10 10° NNE
Cosmos 2221 Rocket 4.5 20:22:17 10° N 20:26:26 35° ENE 20:28:09 26° ESE
Cosmos 1500 3.5 20:25:36 32° SE 20:26:46 43° E 20:30:21 10° NNE
Cosmos 841 Rocket 3.5 20:21:31 10° NNW 20:26:48 83° ENE 20:29:56 25° SSE
SPOT 1/Viking Rocket 3.5 20:23:32 20° SSE 20:27:15 90° E 20:32:32 10° NNW
Cosmos 1536 4.4 20:27:23 19° E 20:27:26 19° E 20:30:15 10° NE
Cosmos 2360 Rocket 2.3 20:22:53 10° NNW 20:28:34 65° ENE 20:31:48 26° SE
Meteor 1-18 Rocket 4.5 20:23:40 10° NNW 20:29:12 66° W 20:33:51 15° S
USA 276 3.0 20:26:50 10° W 20:29:44 33° SSW 20:30:10 32° S
Terra 2.4 20:27:56 26° ESE 20:30:10 44° ENE 20:34:42 10° N
X-37B 2.5 20:28:13 10° WSW 20:30:22 18° SSW 20:30:22 18° SSW
Okean 3 4.0 20:26:22 10° N 20:30:31 44° ENE 20:32:07 30° SE
IGS 5A 3.8 20:29:39 19° S 20:32:29 62° W 20:36:37 10° NNW
Cosmos 2237 4.2 20:27:01 10° NNW 20:32:45 75° ENE 20:35:58 27° SE
ATLAS 3B R/B 2.9 20:26:57 10° S 20:33:05 43° ESE 20:39:18 10° NE
Cosmos 1238 Rocket 3.5 20:30:47 10° SSW 20:33:33 38° WNW 20:36:28 10° N
USA 234 3.4 20:29:00 18° ESE 20:34:02 76° NNE 20:40:36 10° WNW
Cosmos 1980 Rocket 4.4 20:32:48 10° WNW 20:36:40 19° W 20:40:31 10° SW
Cosmos 1666 3.8 20:37:36 27° E 20:37:37 27° E 20:40:49 10° NNE
COSMOS 2487 4.4 20:39:02 16° ENE 20:39:02 16° ENE 20:40:14 10° NE
Cosmos 44 3.8 20:33:03 10° NW 20:37:52 55° WSW 20:40:36 26° S
Lacrosse 5 3.2 20:34:56 10° WNW 20:39:18 29° SW 20:41:50 19° S
Resurs 01 Rocket 3.4 20:35:52 10° SSW 20:39:39 27° W 20:43:28 10° NW
Iridium 4 Rocket 3.5 20:38:44 34° SE 20:39:52 42° E 20:43:48 10° NNE
CARTOSAT-1 3.5 20:40:31 32° SSE 20:42:30 85° ENE 20:46:52 10° NNW
GP-B 4.4 20:39:34 10° NNW 20:43:43 39° W 20:47:50 10° SSW
CZ-4B DEB 4.4 20:46:38 45° S 20:47:31 75° WSW 20:50:53 10° NNW
Cosmos 2061 Rocket 4.2 20:50:45 29° SSE 20:53:40 52° E 20:59:40 10° NNE
Cosmos 1814 Rocket 4.1 20:49:14 10° NNW 20:54:27 74° WSW 20:56:56 32° S
Spot 2 Rocket 4.3 20:51:18 17° SSW 20:54:57 45° W 20:59:51 10° NNW
COSMOS 2428 3.5 20:49:33 10° NNW 20:54:59 41° NE 20:57:48 25° ESE
Cosmos 405 Rocket 4.5 20:51:44 10° SW 20:55:04 30° WNW 20:58:28 10° N
USA 238 DEB 4.4 20:51:35 10° WSW 20:58:08 55° NW 21:05:02 10° NE
USA 238 4.4 20:51:41 10° WSW 20:58:14 55° NW 21:05:08 10° NE
Cosmos 1802 Rocket 4.0 20:54:58 26° S 20:58:39 67° E 21:04:56 10° NNE
Cosmos 2237 Rocket 3.9 20:54:39 10° NNW 20:59:08 23° NE 21:02:46 13° E
Okean 1-7 4.0 20:55:20 10° NNW 20:59:24 42° W 21:01:51 21° SSW
Cosmos 1869 Rocket 3.6 20:57:44 27° SSW 21:00:10 81° W 21:04:41 10° N
CENTAUR R/B 2.9 20:55:02 10° SW 21:01:09 70° NW 21:08:30 10° NE
Cosmos 44 Rocket 3.9 20:57:15 10° NNW 21:02:06 50° NE 21:04:15 30° E
Cosmos 1437 Rocket 4.5 21:02:03 10° NW 21:05:17 27° W 21:07:19 17° SW
FALCON 9 DEB 3.8 21:05:01 10° WNW 21:08:27 52° N 21:09:36 35° ENE
Cosmos 1271 Rocket 4.0 21:05:57 10° N 21:09:15 27° ENE 21:09:24 27° ENE
Cosmos 2333 Rocket 2.4 21:07:21 10° NNW 21:13:07 62° ENE 21:15:19 37° ESE
Cosmos 1674 Rocket 3.9 21:09:06 10° N 21:13:18 46° ENE 21:13:54 43° E
ATLAS 5 CENTAUR R/B 1.9 21:10:47 10° NW 21:13:28 85° SW 21:14:58 43° SE
Cosmos 2084 Rocket 4.5 21:11:11 10° WSW 21:15:16 46° NW 21:19:28 10° NE
SPOT 5 3.2 21:17:38 34° SSW 21:19:09 50° W 21:23:30 10° NNW
Cosmos 1066 Rocket 4.2 21:14:02 10° N 21:19:43 71° ENE 21:21:30 44° SE
Meteor 1-5 Rocket 4.5 21:18:35 22° SSW 21:22:37 75° WNW 21:28:31 10° N
Cosmos 1486 Rocket 4.3 21:22:07 44° ESE 21:22:37 46° ESE 21:27:35 10° NE
Cosmos 1733 Rocket 2.9 21:29:41 65° SE 21:30:08 71° E 21:34:34 10° NNE
Cosmos 1356 3.5 21:30:29 71° NW 21:30:29 71° NW 21:33:46 10° N
ERBS 2.9 21:27:07 10° NW 21:30:13 52° NNE 21:30:13 52° NNE
Meteor 1-11 Rocket 3.7 21:31:46 35° SSW 21:34:18 86° WNW 21:40:10 10° NNE
Cosmos 489 Rocket 4.5 21:28:14 10° NNW 21:34:35 73° ENE 21:36:44 43° SE
Tsikada Rocket 3.9 21:30:05 10° N 21:36:28 90° WSW 21:38:46 42° S
Cosmos 968 Rocket 3.6 21:37:25 51° ESE 21:37:43 52° ESE 21:42:43 10° NNE
Lacrosse 4 Rocket 1.2 21:37:37 75° SSW 21:37:58 86° SE 21:42:10 10° NE
Cosmos 2227 Rocket 4.4 21:40:11 11° E 21:40:11 11° E 21:40:40 10° E
ALOS 2 3.9 21:39:37 27° ENE 21:40:09 28° ENE 21:43:53 10° N
USA 267 3.1 21:33:58 10° ENE 21:40:33 86° SSE 21:47:07 10° WSW
Cosmos 2219 Rocket 2.1 21:37:10 10° NNW 21:42:55 87° ENE 21:44:23 52° SSE
SL-4 R/B 2.1 21:39:51 10° WNW 21:42:58 57° WNW 21:42:58 57° WNW
SL-16 R/B 4.2 21:41:40 10° WNW 21:45:24 18° W 21:48:20 13° SW
Cosmos 1242 Rocket 3.2 21:47:34 10° NNW 21:50:53 49° W 21:50:53 49° W
Meteor 1-23 Rocket 4.4 21:49:48 10° NNW 21:55:35 67° W 21:57:14 46° SSW
Cosmos 2322 4.0 21:50:40 10° NW 21:56:13 56° WSW 21:57:25 46° SSW
Cosmos 1725 Rocket 4.2 21:55:18 33° SSW 21:58:14 69° WNW 22:04:35 10° N
Spot 4 3.7 21:58:19 67° ESE 21:58:50 75° ENE 22:03:41 10° NNW
Cosmos 1833 4.5 21:58:11 24° SW 22:01:40 65° WNW 22:07:21 10° NNE
Cosmos 1842 4.1 21:58:35 10° N 22:01:52 42° NE 22:01:52 42° NE
Cosmos 2322 Rocket 4.3 21:59:09 10° WNW 22:02:35 16° W 22:05:03 13° SW
Cosmos 1536 3.7 22:03:04 41° W 22:03:33 43° WNW 22:07:22 10° N
Cosmos 1908 Rocket 3.7 22:04:49 60° ENE 22:04:49 60° ENE 22:08:46 10° NNE
Cosmos 1378 Rocket 3.6 22:00:17 10° NNW 22:04:43 71° W 22:04:52 70° WSW
Cosmos 2344 4.5 21:59:02 10° NW 22:07:58 68° NE 22:17:17 19° ESE
Terra 3.3 22:06:49 24° WSW 22:08:06 27° W 22:12:09 10° NW
Cosmos 2360 Rocket 3.7 22:07:37 10° NW 22:12:05 25° WSW 22:13:33 22° SW
COSMOS 2487 3.9 22:12:28 33° WNW 22:12:31 33° WNW 22:15:41 10° N
Cosmos 1666 4.4 22:12:27 25° W 22:13:09 27° WNW 22:16:24 10° NNW
SL-16 R/B 3.7 22:09:48 10° NNW 22:14:46 29° NE 22:17:41 19° E
USA 234 3.6 22:16:20 43° SSW 22:17:21 46° SW 22:23:37 10° WNW
MOS 1-B Rocket 3.9 22:15:56 10° NNE 22:21:34 76° WNW 22:23:10 48° SW
Cosmos 1378 4.3 22:18:19 10° NNW 22:21:16 38° WNW 22:21:16 38° WNW
ATLAS 3B R/B 3.2 22:17:11 10° WSW 22:23:40 56° NW 22:30:15 10° NE
Cosmos 1354 Rocket 3.9 22:23:58 72° SE 22:24:16 75° ESE 22:29:36 10° NNE
Cosmos 1975 Rocket 3.2 22:23:03 10° N 22:27:17 69° NE 22:27:17 69° NE
Cosmos 1544 4.1 22:30:39 45° N 22:30:39 45° N 22:33:18 10° N
Cosmos 2297 Rocket 3.2 22:32:12 32° E 22:32:12 32° E 22:36:37 10° NE
Meteor 1-21 4.1 22:26:20 10° N 22:32:10 81° ENE 22:33:00 66° SE
Thor Agena Rocket 3.4 22:29:25 10° NNE 22:34:33 86° WNW 22:35:03 74° SSW
Cosmos 1743 3.6 22:35:21 45° NW 22:35:21 45° NW 22:38:45 10° N
Okean 2 3.8 22:30:57 10° NNW 22:34:30 61° NW 22:34:30 61° NW
Cosmos 1975 3.4 22:36:14 56° NNE 22:36:14 56° NNE 22:39:29 10° NNE
Meteor 2-9 Rocket 4.1 22:35:06 65° SE 22:35:39 70° E 22:41:25 10° NNE
Cosmos 1980 3.6 22:30:29 10° NNW 22:36:13 86° ENE 22:36:58 68° SE
Nimbus 7 Rocket 4.3 22:30:35 10° NNE 22:36:27 66° ESE 22:37:08 61° SE
Cosmos 2233 Rocket 4.4 22:34:08 37° SW 22:36:27 56° WNW 22:42:42 10° N
COSMOS 2428 3.3 22:33:56 10° NW 22:39:20 43° WSW 22:39:48 42° WSW
Timation 2 Rocket 3.9 22:39:51 60° SE 22:40:17 61° ESE 22:46:12 10° NE
Cosmos 1025 Rocket 3.9 22:38:50 10° N 22:42:31 39° ENE 22:42:31 39° ENE
Cosmos 44 Rocket 4.4 22:39:02 10° NW 22:42:56 33° WSW 22:42:56 33° WSW
Cosmos 2237 Rocket 2.0 22:38:17 10° NNW 22:43:58 89° WSW 22:44:34 73° SSE
Cosmos 1271 Rocket 4.4 22:41:55 10° NNW 22:44:32 26° WNW 22:44:32 26° WNW
Cosmos 2219 3.6 22:46:31 47° E 22:46:31 47° E 22:51:37 10° NE
SJ 16-02 3.8 22:47:38 13° ENE 22:47:38 13° ENE 22:48:43 10° ENE
Cosmos 1464 Rocket 3.9 22:46:12 63° SSE 22:47:13 77° E 22:53:23 10° NNE
NOSS 0 Rocket 4.0 22:44:58 10° NW 22:51:06 59° WSW 22:51:50 55° SW
Okean 2 Rocket 3.9 22:53:44 43° ENE 22:53:44 43° ENE 22:57:25 10° NNE
CENTAUR R/B 4.4 22:47:10 10° WNW 22:53:08 33° NNW 23:00:03 10° NE
Nadezhda 4 Rocket 3.9 22:47:30 10° N 22:53:49 75° E 22:54:56 60° SE
Cosmos 2333 Rocket 3.5 22:52:15 10° NW 22:56:59 27° WSW 22:57:19 27° WSW
Sich 1 Rocket 3.8 23:15:13 64° NNW 23:15:13 64° NNW 23:19:07 10° N
DNEPR-1 R/B 4.1 23:09:10 10° NW 23:14:42 65° WSW 23:14:42 65° WSW
Cosmos 1092 Rocket 4.0 23:09:21 10° N 23:15:35 69° ENE 23:16:44 57° SE
ALOS 2 3.7 23:17:00 36° WNW 23:17:00 36° WNW 23:20:28 10° NNW
Lacrosse 4 Rocket 3.9 23:14:10 10° W 23:17:11 19° NW 23:20:12 10° N
Helios 1A 3.4 23:18:09 62° NNW 23:18:09 62° NNW 23:21:42 10° NNW
Cosmos 1626 4.4 23:16:04 10° NNE 23:18:35 17° ENE 23:18:35 17° ENE
Cosmos 2034 Rocket 3.9 23:19:27 64° SSW 23:20:33 86° W 23:26:57 10° N
YAOGAN 11 4.3 23:22:19 77° N 23:22:19 77° N 23:26:35 10° NNW
Cosmos 2227 Rocket 2.2 23:22:00 65° ESE 23:22:07 65° ESE 23:27:45 10° NNE
Cosmos 1707 3.8 23:18:59 10° NNW 23:21:46 42° NW 23:21:46 42° NW
USA 267 3.9 23:17:02 10° ENE 23:23:22 55° NNW 23:29:43 10° W
Cosmos 2219 Rocket 4.0 23:22:27 10° WNW 23:26:06 18° W 23:26:06 18° W
Cosmos 2151 Rocket 3.9 23:26:48 59° NE 23:26:48 59° NE 23:30:34 10° NNE
Meteor 1-12 Rocket 4.2 23:28:42 69° S 23:29:30 89° ESE 23:35:35 10° NNE
Cosmos 1536 Rocket 3.8 23:25:57 10° N 23:29:39 63° NNW 23:29:39 63° NNW
Resurs 1-4 Rocket 4.1 23:31:21 10° NE 23:34:23 15° E 23:35:32 14° ESE
Meteor 2-5 Rocket 4.3 23:30:13 10° N 23:35:40 49° ENE 23:36:53 42° ESE
Cosmos 1538 Rocket 4.4 23:30:59 10° NNW 23:35:35 49° W 23:35:35 49° W
Cosmos 1805 4.5 23:45:52 36° ENE 23:45:52 36° ENE 23:48:41 10° NNE
Cosmos 158 Rocket 4.0 23:40:36 10° NNW 23:46:01 77° ENE 23:46:39 68° ESE
Cosmos 1607 4.0 23:40:34 10° NW 23:46:55 62° WSW 23:47:26 60° SW
Cosmos 2082 3.7 23:48:47 61° SE 23:49:02 61° ESE 23:54:35 10° NE
Cosmos 1375 Rocket 4.5 23:48:19 61° S 23:49:30 77° SE 23:56:07 10° NE
Helios 1B rocket 3.1 23:50:56 10° NNE 23:54:18 50° ENE 23:54:18 50° ENE
PSLV R/B 3.7 23:50:25 10° NNE 23:55:06 86° NE 23:55:06 86° NE
